Flight Track Log - Related Links

Times and Time Zones

All times are in EDT time to prevent confusion due to time zone crossing. See the N364PH flight status page for this flight to view local times or setup timezone preferences in your user account.

Time Position Orientation Groundspeed Altitude Reporting Facility
EDT Latitude Longitude Course Direction KTS MPH feet Rate Location/Type
Sat 03:22:17 PM 41.3919 -81.8783 179° South 134 154 1,900  Level Cleveland Center
Sat 03:22:42 PM 41.3772 -81.8781 179° South 150 173 2,300 1,059 Climbing Cleveland Center
Sat 03:23:42 PM 41.3467 -81.8194 125° Southeast 218 251 3,400 1,135 Climbing Cleveland Center
Sat 03:24:33 PM 41.3244 -81.7556 115° Southeast 211 243 4,400 1,027 Climbing Cleveland Center
Sat 03:25:33 PM 41.3000 -81.6969 119° Southeast 245 282 5,300 1,350 Climbing Cleveland Center
Sat 03:26:33 PM 41.2694 -81.6164 117° Southeast 232 267 7,100 1,650 Climbing Cleveland Center
Sat 03:27:33 PM 41.2408 -81.5442 118° Southeast 225 259 8,600 1,350 Climbing Cleveland Center
Sat 03:28:33 PM 41.2103 -81.4636 117° Southeast 220 253 9,800 1,150 Climbing Cleveland Center
Sat 03:29:33 PM 41.1775 -81.3831 118° Southeast 230 265 10,900 1,050 Climbing Cleveland Center
Sat 03:30:33 PM 41.1447 -81.3000 118° Southeast 243 280 11,900 950 Climbing Cleveland Center
Sat 03:31:33 PM 41.1097 -81.2142 118° Southeast 253 291 12,800 1,050 Climbing Cleveland Center
Sat 03:32:33 PM 41.0475 -81.1833 160° South 222 255 14,000 1,150 Climbing Cleveland Center
Sat 03:33:33 PM 40.9850 -81.1608 165° South 233 268 15,100 1,000 Climbing Cleveland Center
Sat 03:34:33 PM 40.9225 -81.1356 163° South 233 268 16,000 850 Climbing Cleveland Center
Sat 03:35:33 PM 40.8622 -81.1131 164° South 233 268 16,800 750 Climbing Cleveland Center
Sat 03:36:33 PM 40.8083 -81.0631 145° Southeast 243 280 17,500 850 Climbing Cleveland Center
Sat 03:37:33 PM 40.7461 -80.9969 141° Southeast 261 300 18,500 750 Climbing Cleveland Center
Sat 03:38:33 PM 40.6858 -80.9392 144° Southeast 267 307 19,000 250 Climbing Cleveland Center
Sat 03:39:33 PM 40.6233 -80.8786 144° Southeast 272 313 19,000  Level Cleveland Center
Sat 03:40:33 PM 40.5547 -80.8100 143° Southeast 290 334 19,000  Level Cleveland Center
Sat 03:41:33 PM 40.4861 -80.7442 144° Southeast 302 348 19,000  Level Cleveland Center
Sat 03:42:33 PM 40.4172 -80.6786 144° Southeast 308 354 19,000  Level Cleveland Center
Sat 03:43:33 PM 40.3506 -80.6103 142° Southeast 308 354 19,000  Level Cleveland Center
Sat 03:44:33 PM 40.2903 -80.5506 143° Southeast 308 354 19,000  Level Cleveland Center
Sat 03:45:33 PM 40.2233 -80.4881 145° Southeast 308 354 19,000  Level Cleveland Center
Sat 03:46:33 PM 40.1567 -80.4256 144° Southeast 303 349 19,000  Level Cleveland Center
Sat 03:47:33 PM 40.0919 -80.3606 142° Southeast 303 349 19,000  Level Cleveland Center
Sat 03:48:33 PM 40.0250 -80.2983 145° Southeast 303 349 19,000  Level Cleveland Center
Sat 03:49:33 PM 39.9583 -80.2364 145° Southeast 303 349 19,000  Level Cleveland Center
Sat 03:50:33 PM 39.8914 -80.1744 145° Southeast 303 349 19,000  Level Cleveland Center
Sat 03:51:33 PM 39.8244 -80.1100 144° Southeast 303 349 19,000  Level Cleveland Center
Sat 03:52:33 PM 39.7594 -80.0483 144° Southeast 298 343 19,000  Level Cleveland Center
Sat 03:53:33 PM 39.6944 -79.9869 144° Southeast 298 343 19,000  Level Cleveland Center
Sat 03:54:33 PM 39.6275 -79.9256 145° Southeast 298 343 19,000  Level Cleveland Center
Sat 03:55:33 PM 39.5647 -79.8586 141° Southeast 298 343 19,000  Level Cleveland Center
Sat 03:56:04 PM 39.5531 -79.7903 102° East 293 337 19,000  Level Washington Center
Sat 03:57:04 PM 39.5447 -79.6661 95° East 300 345 19,000  Level Washington Center
Sat 03:58:04 PM 39.5364 -79.5444 95° East 317 365 19,000  Level Washington Center
Sat 03:59:04 PM 39.5258 -79.4228 96° East 328 377 19,000  Level Washington Center
Sat 04:00:04 PM 39.5169 -79.3014 95° East 334 384 19,000  Level Washington Center
Sat 04:01:04 PM 39.5058 -79.1931 98° East 340 391 19,000  Level Washington Center
Sat 04:02:04 PM 39.4947 -79.0689 97° East 340 391 19,000 -150 Level Washington Center
Sat 04:03:04 PM 39.4836 -78.9500 97° East 334 384 18,700 -900 Descending Washington Center
Sat 04:04:04 PM 39.4725 -78.8231 96° East 334 384 17,200 -1,650 Descending Washington Center
Sat 04:05:04 PM 39.4611 -78.6989 97° East 340 391 15,400 -1,800 Descending Washington Center
Sat 04:06:04 PM 39.4497 -78.5747 97° East 340 391 13,600 -1,750 Descending Washington Center
Sat 04:07:04 PM 39.4381 -78.4533 97° East 345 397 11,900 -1,600 Descending Washington Center
Sat 04:08:04 PM 39.4283 -78.3375 96° East 339 390 10,400 -1,300 Descending Washington Center
Sat 04:09:04 PM 39.4075 -78.2400 105° East 312 359 9,300 -1,050 Descending Washington Center
Sat 04:10:04 PM 39.3522 -78.1922 146° Southeast 242 278 8,300 -650 Descending Washington Center
Sat 04:11:04 PM 39.3014 -78.1342 139° Southeast 237 273 8,000 -150 Descending Washington Center
Sat 04:12:04 PM 39.2547 -78.0708 134° Southeast 243 280 8,000  Level Washington Center
Sat 04:13:04 PM 39.2081 -78.0025 131° Southeast 243 280 8,000 -300 Level Washington Center
Sat 04:14:04 PM 39.1617 -77.9339 131° Southeast 248 285 7,400 -900 Descending Washington Center
Sat 04:15:04 PM 39.1108 -77.8628 133° Southeast 254 292 6,200 -700 Descending Washington Center
Sat 04:16:04 PM 39.0642 -77.7944 131° Southeast 259 298 6,000 -100 Descending Washington Center
Sat 04:17:04 PM 39.0156 -77.7208 130° Southeast 254 292 6,000  Level Washington Center
Sat 04:18:49 PM 38.9333 -77.6167 135° Southeast 236 272 6,000 -316 Level Potomac TRACON
Sat 04:19:55 PM 38.8667 -77.5833 159° South 222 255 5,100 -905 Descending Potomac TRACON
Sat 04:20:55 PM 38.8500 -77.5167 108° East 178 205 4,100 -1,252 Descending Potomac TRACON
Sat 04:21:50 PM 38.8667 -77.4667 67° East 153 176 2,700 -1,565 Descending Potomac TRACON
Sat 04:22:50 PM 38.9167 -77.4667 360° North 131 151 1,100 -1,600 Descending Potomac TRACON
Sat 04:24:00 PM 38.9333 -77.4500 90° East  Level FlightAware Approximate
Sat 04:31:00 PM 38.9474 -77.4599 90° East  Level Estimated
Sat 04:32:00 PM 38.9474 -77.4599 90° East  Level Estimated
Sat 04:33:00 PM 38.9474 -77.4599 90° East  Level Estimated
Sat 04:34:00 PM 38.9474 -77.4599 90° East  Level Estimated

Login

Don't have an account? Register now (free) for customized features, flight alerts, and more!